Location: Agnino
(44.2500°N, 10.0833°E)
Time: 20:01:14
(UTC+00:00)

Daily predictions for brighter satellites

Satellite Brightness Start Highest point End
(mag) Time Altitude Azimuth Time Altitude Azimuth Time Altitude Azimuth
CZ-4C R/B 4.4 18:51:31 10° NNW 18:56:49 23° NNE 19:02:47 10° ENE
OE (NEXTSAT) 4.5 18:57:52 10° W 19:01:21 79° NNW 19:04:49 10° ENE
Sich 1 4.5 18:58:42 10° NNE 19:02:03 21° ENE 19:05:24 10° ESE
MOS 1 4.4 19:02:23 10° SSE 19:07:56 61° ENE 19:13:32 10° N
Lacrosse 5 rocket 4.2 19:09:26 10° W 19:11:10 12° WSW 19:12:55 10° SW
MOS 1-B Rocket 4.4 19:05:31 10° NNE 19:13:11 70° ESE 19:19:37 10° S
Meteor 2-15 Rocket 4.5 19:12:19 10° S 19:18:23 90° E 19:24:30 10° N
SJ-6B 3.0 19:15:13 10° S 19:19:03 72° WSW 19:23:00 10° NNW
SL-08 ROCKET BODY 4.3 19:19:50 10° N 19:25:46 75° E 19:31:36 10° SSE
USA 290 3.7 19:25:24 10° N 19:28:08 24° ENE 19:30:10 14° ESE
Cosmos 1842 Rocket 4.5 19:24:12 10° SSW 19:28:34 54° WNW 19:32:59 10° N
Ariane Rocket 3.0 19:23:41 10° SSE 19:28:44 86° ENE 19:33:50 10° NNW
Cosmos 921 Rocket 4.5 19:25:12 10° NW 19:29:06 35° W 19:32:56 10° SSW
Cosmos 2263 Rocket 4.4 19:27:05 10° WSW 19:31:55 30° NW 19:36:49 10° N
FALCON 9 DEB 3.1 19:30:29 10° WNW 19:33:29 59° SW 19:35:41 17° SE
IRIS 4.2 19:31:19 10° WSW 19:33:35 42° S 19:35:32 16° ESE
Cosmos 1606 2.7 19:30:41 10° S 19:34:25 83° W 19:38:14 10° N
CZ-2C R/B 4.5 19:31:38 10° NE 19:35:36 31° E 19:39:19 11° SSE
Cosmos 1844 Rocket 2.6 19:30:56 10° SSW 19:36:28 74° ESE 19:42:03 10° NNE
SPOT 1/Viking Rocket 4.4 19:36:09 14° SE 19:40:05 36° ENE 19:44:48 10° N
SL-4 R/B 2.4 19:37:44 10° WNW 19:42:06 67° SW 19:45:35 17° SE
Cosmos 1805 Rocket 3.5 19:39:10 10° N 19:43:32 75° E 19:47:34 12° SSE
Cosmos 1354 Rocket 4.4 19:40:20 10° S 19:45:10 40° ESE 19:50:02 10° NE
X-37B 0.7 19:42:08 10° W 19:45:20 75° N 19:47:53 15° E
Cosmos 1386 Rocket 4.4 19:39:18 10° N 19:45:20 71° E 19:51:19 10° SSE
ARIANE 5 R/B 4.0 19:43:07 15° ESE 19:45:33 24° ENE 19:49:02 10° NNE
Cosmos 1633 Rocket 3.9 19:47:56 10° N 19:51:57 34° ENE 19:54:17 20° SE
Cosmos 1745 Rocket 3.9 19:46:20 10° N 19:52:35 83° E 19:58:40 10° S
SPOT 3 Rocket 3.5 19:49:00 14° SSE 19:53:32 75° ENE 19:58:41 10° N
Cosmos 1709 Rocket 4.2 19:49:25 10° N 19:55:23 51° ENE 19:59:47 18° SSE
Resurs 1-3 4.2 19:51:30 10° S 19:55:47 54° W 20:00:07 10° NNW
Landsat 7 3.8 19:52:36 16° SSE 19:56:20 68° ENE 20:01:04 10° N
Cosmos 1844 3.7 19:50:57 10° SSW 19:56:41 86° ESE 20:02:24 10° NNE
Cosmos 1812 4.5 19:56:30 16° E 19:56:48 16° E 19:59:11 10° NE
Cosmos 968 Rocket 4.0 19:52:17 10° SSW 19:57:29 64° WNW 20:02:42 10° NNE
BREEZE-M DEB (TANK) 4.0 19:55:02 10° WNW 19:59:19 85° SSW 20:06:54 14° ESE
ATLAS 5 CENTAUR R/B 2.6 19:55:42 10° NNW 20:01:13 61° NE 20:05:41 20° SE
NOSS 3-3 (A) 4.2 19:56:17 10° S 20:01:32 41° ESE 20:07:25 10° NE
NOSS 3-3 (C) 4.2 19:56:24 10° S 20:01:39 41° ESE 20:07:31 10° NE
Cosmos 1328 Rocket 4.3 19:59:49 22° SE 20:01:59 35° E 20:06:01 10° NNE
Cosmos 1486 Rocket 4.4 19:59:42 10° SSW 20:05:00 69° WNW 20:10:21 10° NNE
IGS 5A 3.5 20:04:31 18° S 20:07:35 80° WSW 20:11:45 10° NNW
Meteor 1-26 Rocket 4.3 20:02:17 11° S 20:07:38 59° E 20:13:07 10° NNE
CARTOSAT-1 4.3 20:07:02 24° ESE 20:08:54 36° ENE 20:12:53 10° N
Cosmos 2315 Rocket 4.1 20:04:39 13° S 20:10:17 59° E 20:16:33 10° NNE
Cosmos 1833 Rocket 3.9 20:05:54 10° N 20:10:51 30° NE 20:14:00 18° E
CRYOSAT 2 4.5 20:07:53 22° SSE 20:10:59 60° E 20:15:49 10° N
S3M 4.2 20:04:40 10° SSW 20:11:03 76° W 20:17:25 10° N
BREEZE-M R/B 2.3 20:10:33 10° WSW 20:13:06 57° NNW 20:15:12 13° ENE
Cosmos 1666 4.4 20:14:20 10° NNE 20:16:57 18° ENE 20:17:20 18° E
Cosmos 1666 Rocket 3.5 20:13:13 10° N 20:17:38 78° E 20:19:57 27° SSE
Meteor 2-17 Rocket 4.4 20:14:33 10° N 20:20:45 84° E 20:25:05 21° S
Cosmos 1933 3.8 20:17:32 10° SSW 20:21:31 60° W 20:25:32 10° N
USA 245 2.4 20:23:48 54° NNE 20:23:48 54° NNE 20:25:43 10° N
Cosmos 783 Rocket 4.5 20:21:42 10° NNW 20:26:58 72° ENE 20:29:28 31° SE
Cosmos 1242 Rocket 3.1 20:24:04 13° SSW 20:27:07 57° WNW 20:30:39 10° N
BREEZE M DEB (TANK) 3.1 20:28:53 10° WNW 20:33:05 36° N 20:34:07 24° NE
Resurs 01 Rocket 2.8 20:29:42 14° SSW 20:33:12 38° W 20:37:22 10° NNW
Cosmos 773 Rocket 4.1 20:29:29 10° NNW 20:34:48 67° ENE 20:37:01 35° SE
Spot 2 Rocket 3.4 20:34:12 31° SSE 20:36:39 84° ENE 20:41:44 10° NNW
SJ 16-02 2.5 20:38:19 26° E 20:38:19 26° E 20:41:34 10° NE
Sich 1 4.4 20:35:52 10° NNW 20:39:48 35° W 20:43:01 14° SSW
DELTA 2 R/B (1) 4.2 20:35:20 10° W 20:40:28 39° SSW 20:41:51 33° SSE
COSMOS 2406 3.7 20:35:55 10° NNW 20:41:26 49° ENE 20:43:43 32° ESE
Meteor 2-6 Rocket 4.3 20:41:14 35° SSE 20:43:06 51° E 20:48:24 10° NNE
Cosmos 2082 Rocket 3.5 20:39:13 10° N 20:44:04 29° NE 20:46:29 21° E
Cosmos 1782 3.3 20:43:16 23° SSW 20:45:37 59° W 20:49:34 10° N
Cosmos 1500 3.0 20:42:50 10° N 20:46:37 82° E 20:47:10 63° SSE
CZ-4C R/B 3.2 20:39:32 10° NNW 20:46:42 64° NE 20:51:18 28° ESE
ERS-1 Rocket 2.9 20:50:52 42° SSE 20:52:36 78° ENE 20:57:37 10° N
SPOT 5 2.9 20:52:52 43° SSE 20:54:34 80° ENE 20:59:48 10° N
H-2A R/B 3.7 20:53:44 10° NNE 20:57:49 50° E 20:57:49 50° E
Cosmos 1271 Rocket 3.4 21:00:22 41° ENE 21:00:22 41° ENE 21:03:44 10° NNE
Meteor 1-11 Rocket 4.3 20:55:19 10° N 21:01:03 46° ENE 21:02:44 37° ESE
Cosmos 1151 Rocket 4.1 20:58:02 17° SW 21:01:06 42° WNW 21:05:17 10° N
Cosmos 1777 Rocket 3.9 20:58:39 29° SSW 21:01:22 87° ESE 21:06:36 10° NNE
USA 290 4.4 21:00:06 10° WNW 21:02:23 18° WSW 21:02:58 17° WSW
Terra 1.8 21:02:23 52° SE 21:03:24 69° ENE 21:08:09 10° N
Cosmos 2278 Rocket 2.1 21:05:44 38° S 21:07:56 71° ESE 21:13:36 10° NNE
USA 307 4.2 21:05:51 10° NW 21:09:49 36° NNE 21:11:26 26° ENE
Cosmos 1515 Rocket 3.9 21:17:35 44° SW 21:18:46 62° W 21:23:09 10° N
Cosmos 2084 4.0 21:17:53 15° SW 21:21:09 55° NW 21:25:20 10° NNE
SL-4 R/B 4.5 21:18:52 10° W 21:21:08 14° SW 21:21:08 14° SW
ARIANE 5 R/B 3.8 21:20:40 29° SW 21:21:51 34° W 21:25:49 10° NNW
X-37B 2.7 21:18:49 10° W 21:20:09 22° W 21:20:09 22° W
USA 308 3.9 21:19:17 10° NW 21:23:23 41° NNE 21:24:24 35° ENE
Cosmos 1869 Rocket 3.9 21:19:51 10° N 21:23:54 50° ENE 21:23:54 50° ENE
Cosmos 1536 3.6 21:20:25 10° N 21:23:48 40° NE 21:23:48 40° NE
Meteor 1-10 Rocket 4.1 21:22:59 48° S 21:24:37 89° ESE 21:30:17 10° N
Cosmos 1943 Rocket 3.9 21:30:25 18° E 21:30:25 18° E 21:32:53 10° NE
Cosmos 2154 Rocket 4.0 21:25:09 10° N 21:31:30 72° E 21:33:03 52° SE
Cosmos 1812 3.9 21:31:31 33° WSW 21:32:14 36° WNW 21:35:50 10° N
Cosmos 2184 Rocket 4.1 21:33:16 10° NNW 21:39:29 70° W 21:41:19 46° SSW
NOSS 3-4 (A) 3.9 21:37:23 10° NW 21:44:25 76° NE 21:47:02 45° SE
NOSS 3-4 (C) 3.9 21:37:30 10° NW 21:44:31 75° NE 21:47:09 44° SE
ATLAS 5 CENTAUR R/B 3.7 21:40:45 10° WNW 21:45:46 29° WSW 21:47:13 26° SW
Cosmos 2074 Rocket 4.3 21:41:14 10° NNW 21:47:25 59° W 21:49:23 41° SSW
Cosmos 1666 4.2 21:49:16 10° NNW 21:52:11 29° W 21:52:11 29° W
Cosmos 2112 Rocket 4.4 21:48:07 10° NNW 21:53:21 50° ENE 21:53:50 48° E
Nadezhda 1 Rocket 4.0 21:51:51 50° SSW 21:53:38 80° W 21:59:56 10° N
Cosmos 1833 Rocket 3.2 21:49:34 10° NW 21:54:58 46° WSW 21:55:42 44° SW
Cosmos 1238 Rocket 4.3 21:51:07 10° N 21:57:13 46° ENE 21:57:51 45° E
Cosmos 1743 3.9 21:54:13 10° N 21:56:52 38° NNE 21:56:52 38° NNE
ATLAS 2AS CENTAUR R/B 3.1 21:50:44 10° NNW 21:58:03 58° NE 22:00:32 39° ESE
USA 215 4.2 21:55:02 14° E 22:00:22 44° NNE 22:06:29 10° NW
Cosmos 2297 4.1 22:03:58 48° E 22:03:58 48° E 22:08:52 10° NE
USA 305 3.5 22:01:16 10° NW 22:04:41 55° NW 22:04:41 55° NW
Cosmos 2181 Rocket 4.2 22:07:22 50° ESE 22:07:44 50° E 22:13:37 10° NNE
Cosmos 158 Rocket 4.4 22:11:05 10° NNW 22:15:27 47° W 22:15:27 47° W
SJ 16-02 2.9 22:15:15 27° W 22:16:18 31° WNW 22:20:16 10° N
Cosmos 1733 Rocket 3.8 22:12:39 10° N 22:16:02 48° NNE 22:16:02 48° NNE
Cosmos 2228 Rocket 4.3 22:17:34 34° W 22:17:50 34° WNW 22:21:55 10° N
Meteor 1-27 Rocket 4.3 22:18:37 43° WSW 22:20:02 53° WNW 22:25:48 10° N
Cosmos 1680 Rocket 3.4 22:16:13 10° NNW 22:21:27 82° W 22:21:27 82° W
Cosmos 2341 Rocket 3.9 22:15:52 10° N 22:22:18 89° E 22:23:08 70° S
Cosmos 1937 Rocket 3.8 22:24:06 56° ENE 22:24:06 56° ENE 22:28:26 10° NNE
Cosmos 2366 rocket 4.1 22:17:24 10° N 22:23:31 59° E 22:24:07 56° ESE
USA 306 4.1 22:20:23 10° NW 22:23:05 38° WNW 22:23:05 38° WNW
Cosmos 1818 4.3 22:21:26 10° NNW 22:26:42 44° NE 22:27:40 40° ENE
Cosmos 967 Rocket 4.4 22:27:43 68° ESE 22:27:43 68° ESE 22:33:56 10° NE
Cosmos 2082 Rocket 2.6 22:22:59 10° NW 22:28:19 49° WSW 22:28:19 49° WSW
CZ-4C R/B 3.8 22:28:26 10° NW 22:35:13 36° WSW 22:36:28 34° SW
Meteor 1-19 Rocket 4.1 22:40:49 78° NE 22:40:49 78° NE 22:45:57 10° NNE
Cosmos 2218 Rocket 3.8 22:35:15 10° N 22:41:33 83° E 22:42:06 75° SE
Terra 4.1 22:41:15 14° W 22:41:37 14° W 22:44:03 10° WNW
Cosmos 489 Rocket 4.4 22:42:31 10° NNW 22:48:46 74° ENE 22:49:22 68° ESE
Cosmos 2278 Rocket 4.3 22:48:19 10° W 22:52:36 22° NW 22:56:53 10° N
Cosmos 1862 Rocket 4.5 22:57:00 45° NNW 22:57:00 45° NNW 23:00:15 10° N
Cosmos 1898 Rocket 4.2 22:57:39 46° W 22:58:08 47° WNW 23:03:19 10° N
Nadezhda 3 Rocket 4.4 23:02:11 48° E 23:02:30 49° E 23:08:28 10° NNE
Cosmos 2369 Rocket 2.5 23:03:27 55° E 23:03:27 55° E 23:08:19 10° NNE
COBE Rocket 4.1 23:07:04 69° NNW 23:07:04 69° NNW 23:11:37 10° NNW
RESURS DK-1 4.2 23:06:29 10° N 23:09:53 26° NE 23:09:53 26° NE
Meteor 2-9 Rocket 4.5 23:05:01 10° NNW 23:10:35 59° W 23:10:35 59° W
SL-8 Rocket 4.4 23:04:59 10° NNW 23:11:05 51° W 23:11:34 50° WSW
Cosmos 1943 Rocket 2.3 23:11:55 64° W 23:12:11 65° WNW 23:17:47 10° NNE
Cosmos 1975 4.4 23:09:53 10° NNW 23:12:12 32° NNW 23:12:12 32° NNW
ALOS 2 3.8 23:16:05 36° NW 23:16:05 36° NW 23:19:02 10° NNW
Cosmos 1867 4.4 23:18:57 39° E 23:18:57 39° E 23:22:56 10° NE
Cosmos 1607 4.3 23:19:25 51° ESE 23:19:25 51° ESE 23:25:22 10° NE
SL-08 R/B 4.3 23:13:02 10° N 23:19:15 89° W 23:19:37 81° S
DNEPR-1 R/B 4.4 23:19:56 60° WNW 23:20:20 62° NW 23:25:19 10° NNE
Meteor 2-4 Rocket 3.7 23:20:31 81° W 23:20:31 81° W 23:26:15 10° N
Cosmos 44 4.2 23:16:46 10° NW 23:20:48 43° WNW 23:20:48 43° WNW
Cosmos 2263 4.4 23:22:38 60° E 23:22:38 60° E 23:27:55 10° NNE
Okean 1-7 4.0 23:30:15 44° N 23:30:15 44° N 23:33:16 10° N
Cosmos 372 Rocket 4.3 23:30:36 58° NW 23:30:36 58° NW 23:35:22 10° NNE
ATLAS CENTAUR R/B 3.8 23:33:01 13° ENE 23:33:01 13° ENE 23:33:39 10° ENE
Cosmos 1125 Rocket 4.1 23:35:51 49° ENE 23:35:51 49° ENE 23:40:15 10° NNE
Cosmos 1656 Rocket 3.7 23:39:04 68° ENE 23:39:04 68° ENE 23:44:07 10° NNE
SeaSat 1 2.6 23:33:46 10° NNE 23:38:19 71° NNW 23:38:19 71° NNW
Cosmos 494 Rocket 4.3 23:35:02 10° NNW 23:40:11 58° ENE 23:40:13 58° ENE
USA 215 3.1 23:42:21 68° SSE 23:43:07 77° SW 23:49:41 10° NW
Cosmos 2239 Rocket 4.3 23:37:59 10° N 23:44:19 88° E 23:44:52 76° SSE
Cosmos 1833 4.3 23:41:18 10° NNW 23:47:04 72° ENE 23:47:33 68° E
ATLAS 2AS CENTAUR R/B 3.6 23:42:19 10° NW 23:47:56 33° W 23:47:56 33° W
CZ-2D R/B 3.9 23:49:12 10° NE 23:53:13 21° E 23:53:55 20° ESE
